AZA989 LIEA-LIMF

Flight info

Callsign AZA989
Flight time 0h 51m
Altitude 30000
Route GOPAT DCT OKBON DCT TORTU DCT ANAKI L50 LAGEN
Aircraft MD82/M-SDFGIRWY/S

Departure

Time 2026-05-05 18:16
Airport Alghero-Fertilia Airport (LIEA)

Arrival

Time 2026-05-05 19:07
Airport Turin Airport (LIMF)
Time Latitude Longitude Altitude Speed Heading
2026-05-05 17:49 40.63003 8.29283 93 ft 0 kts 351°
2026-05-05 18:09 40.63004 8.29283 93 ft 1 kts 351°
2026-05-05 18:09 40.63010 8.29285 96 ft 0 kts 29°
2026-05-05 18:09 40.63011 8.29289 96 ft 0 kts 65°
2026-05-05 18:10 40.63010 8.29294 96 ft 3 kts 94°
2026-05-05 18:10 40.63024 8.29345 94 ft 7 kts 47°
2026-05-05 18:10 40.63085 8.29388 95 ft 7 kts 24°
2026-05-05 18:10 40.63130 8.29414 95 ft 7 kts 24°
2026-05-05 18:11 40.63159 8.29431 94 ft 7 kts 25°
2026-05-05 18:11 40.63211 8.29463 96 ft 12 kts 25°
2026-05-05 18:11 40.63327 8.29466 95 ft 21 kts 349°
2026-05-05 18:11 40.63478 8.29484 99 ft 22 kts 25°
2026-05-05 18:12 40.63590 8.29551 99 ft 16 kts 24°
2026-05-05 18:12 40.63687 8.29610 101 ft 14 kts 25°
2026-05-05 18:12 40.63773 8.29662 102 ft 13 kts 25°
2026-05-05 18:12 40.63856 8.29712 101 ft 14 kts 25°
2026-05-05 18:13 40.63947 8.29766 102 ft 14 kts 25°
2026-05-05 18:13 40.64039 8.29822 100 ft 15 kts 24°
2026-05-05 18:13 40.64146 8.29885 98 ft 18 kts 25°
2026-05-05 18:13 40.64263 8.29956 97 ft 18 kts 24°
2026-05-05 18:14 40.64387 8.29984 98 ft 19 kts 336°
2026-05-05 18:14 40.64416 8.29840 98 ft 18 kts 246°
2026-05-05 18:14 40.64328 8.29748 97 ft 17 kts 204°
2026-05-05 18:14 40.64239 8.29695 99 ft 7 kts 204°
2026-05-05 18:15 40.64170 8.29654 100 ft 18 kts 204°
2026-05-05 18:15 40.63897 8.29490 100 ft 77 kts 204°
2026-05-05 18:15 40.63198 8.29071 99 ft 140 kts 204°
2026-05-05 18:15 40.62182 8.28465 354 ft 170 kts 205°
2026-05-05 18:16 40.61094 8.27910 1266 ft 163 kts 195°
2026-05-05 18:16 40.60036 8.27568 2198 ft 153 kts 191°
2026-05-05 18:16 40.59004 8.27309 2909 ft 152 kts 189°
2026-05-05 18:16 40.57976 8.27095 3628 ft 147 kts 189°
2026-05-05 18:17 40.56948 8.26901 4067 ft 159 kts 189°
2026-05-05 18:17 40.55809 8.26665 4564 ft 164 kts 190°
2026-05-05 18:17 40.54594 8.26413 4843 ft 187 kts 191°
2026-05-05 18:17 40.53318 8.26138 5497 ft 187 kts 191°
2026-05-05 18:18 40.51931 8.25821 5655 ft 216 kts 192°
2026-05-05 18:18 40.50412 8.25263 5795 ft 239 kts 206°
2026-05-05 18:18 40.49119 8.23923 5780 ft 240 kts 235°
2026-05-05 18:18 40.48533 8.21867 5771 ft 257 kts 260°
2026-05-05 18:19 40.48524 8.19464 5761 ft 264 kts 270°
2026-05-05 18:19 40.48692 8.17066 5748 ft 264 kts 272°
2026-05-05 18:19 40.48938 8.14664 5749 ft 265 kts 274°
2026-05-05 18:19 40.49483 8.12333 5754 ft 274 kts 297°
2026-05-05 18:20 40.50850 8.10549 5764 ft 286 kts 327°
2026-05-05 18:20 40.52772 8.09777 5764 ft 294 kts 355°
2026-05-05 18:20 40.54797 8.10123 6059 ft 303 kts 14°
2026-05-05 18:20 40.56818 8.10898 6802 ft 302 kts 16°
2026-05-05 18:21 40.58823 8.11750 7521 ft 302 kts 17°
2026-05-05 18:21 40.60822 8.12655 8166 ft 305 kts 18°
2026-05-05 18:21 40.62832 8.13595 8845 ft 306 kts 18°
2026-05-05 18:21 40.64811 8.14520 9536 ft 307 kts 17°
2026-05-05 18:22 40.66842 8.15453 10080 ft 312 kts 17°
2026-05-05 18:22 40.68960 8.16399 10246 ft 331 kts 16°
2026-05-05 18:22 40.71215 8.17382 10430 ft 350 kts 16°
2026-05-05 18:22 40.73587 8.18405 10622 ft 366 kts 16°
2026-05-05 18:23 40.76039 8.19453 11020 ft 375 kts 16°
2026-05-05 18:23 40.78538 8.20525 11588 ft 377 kts 16°
2026-05-05 18:23 40.81007 8.21589 12189 ft 379 kts 16°
2026-05-05 18:23 40.83536 8.22675 12703 ft 383 kts 15°
2026-05-05 18:24 40.86088 8.23774 13251 ft 387 kts 15°
2026-05-05 18:24 40.88663 8.24889 13764 ft 391 kts 15°
2026-05-05 18:24 40.91234 8.26002 14239 ft 394 kts 15°
2026-05-05 18:24 40.93845 8.27132 14739 ft 396 kts 15°
2026-05-05 18:25 40.96484 8.28280 15243 ft 398 kts 16°
2026-05-05 18:25 40.98235 8.29042 15564 ft 401 kts 16°
2026-05-05 18:25 41.01807 8.30597 16216 ft 405 kts 16°
2026-05-05 18:25 41.04454 8.31750 16685 ft 408 kts 16°
2026-05-05 18:26 41.07168 8.32932 17170 ft 410 kts 16°
2026-05-05 18:26 41.09897 8.34120 17648 ft 413 kts 16°
2026-05-05 18:26 41.12636 8.35315 18140 ft 416 kts 16°
2026-05-05 18:26 41.15398 8.36523 18560 ft 418 kts 16°
2026-05-05 18:27 41.18144 8.37727 18981 ft 421 kts 16°
2026-05-05 18:27 41.20927 8.38949 19445 ft 422 kts 15°
2026-05-05 18:27 41.23733 8.40181 19904 ft 424 kts 15°
2026-05-05 18:27 41.26542 8.41414 20364 ft 426 kts 15°
2026-05-05 18:28 41.32191 8.43880 21186 ft 431 kts 13°
2026-05-05 18:28 41.35131 8.44550 21620 ft 427 kts 359°
2026-05-05 18:28 41.38127 8.44607 22093 ft 426 kts 355°
2026-05-05 18:29 41.41081 8.44530 22501 ft 428 kts 354°
2026-05-05 18:29 41.44054 8.44433 22912 ft 430 kts 354°
2026-05-05 18:29 41.47065 8.44342 23343 ft 433 kts 354°
2026-05-05 18:29 41.50087 8.44273 23620 ft 438 kts 355°
2026-05-05 18:30 41.53149 8.44230 23934 ft 441 kts 355°
2026-05-05 18:30 41.56229 8.44211 24263 ft 443 kts 355°
2026-05-05 18:30 41.59319 8.44207 24588 ft 445 kts 355°
2026-05-05 18:30 41.62409 8.44207 24919 ft 448 kts 355°
2026-05-05 18:31 41.65553 8.44206 25228 ft 450 kts 354°
2026-05-05 18:31 41.68712 8.44201 25536 ft 454 kts 355°
2026-05-05 18:31 41.71870 8.44187 25747 ft 459 kts 354°
2026-05-05 18:31 41.75038 8.44174 26062 ft 461 kts 354°
2026-05-05 18:32 41.78264 8.44162 26417 ft 462 kts 354°
2026-05-05 18:32 41.81467 8.44150 26707 ft 464 kts 354°
2026-05-05 18:32 41.84748 8.44137 26994 ft 467 kts 354°
2026-05-05 18:32 41.87969 8.44123 27282 ft 469 kts 354°
2026-05-05 18:33 41.91282 8.44108 27571 ft 472 kts 354°
2026-05-05 18:33 41.94574 8.44093 27843 ft 475 kts 354°
2026-05-05 18:33 41.97872 8.44079 28171 ft 477 kts 354°
2026-05-05 18:33 42.01187 8.44066 28499 ft 478 kts 353°
2026-05-05 18:34 42.04498 8.44055 28914 ft 477 kts 353°
2026-05-05 18:34 42.07829 8.44044 29369 ft 475 kts 353°
2026-05-05 18:34 42.11134 8.44033 29700 ft 477 kts 353°
2026-05-05 18:34 42.14479 8.44018 29827 ft 481 kts 353°
2026-05-05 18:35 42.21145 8.43981 29900 ft 476 kts 353°
2026-05-05 18:35 42.27688 8.43952 29915 ft 471 kts 352°
2026-05-05 18:36 42.34225 8.43919 29928 ft 472 kts 352°
2026-05-05 18:36 42.40837 8.43880 29921 ft 474 kts 352°
2026-05-05 18:37 42.47429 8.44271 29917 ft 487 kts
2026-05-05 18:37 42.53840 8.47522 29914 ft 495 kts 19°
2026-05-05 18:38 42.60118 8.51285 29917 ft 493 kts 19°
2026-05-05 18:38 42.66431 8.54942 29912 ft 492 kts 17°
2026-05-05 18:39 42.72756 8.58462 29921 ft 493 kts 17°
2026-05-05 18:39 42.79112 8.61978 29915 ft 494 kts 17°
2026-05-05 18:40 42.85623 8.64405 29923 ft 475 kts 352°
2026-05-05 18:40 42.88838 8.63880 29936 ft 458 kts 336°
2026-05-05 18:40 42.91887 8.62634 29931 ft 458 kts 335°
2026-05-05 18:41 42.98225 8.60953 29922 ft 471 kts 346°
2026-05-05 18:41 43.04763 8.60323 29924 ft 475 kts 350°
2026-05-05 18:42 43.11383 8.59932 29944 ft 476 kts 350°
2026-05-05 18:42 43.18011 8.59498 29925 ft 476 kts 349°
2026-05-05 18:43 43.24631 8.58979 29927 ft 477 kts 349°
2026-05-05 18:43 43.31243 8.58439 29946 ft 477 kts 348°
2026-05-05 18:44 43.37836 8.57919 29928 ft 476 kts 348°
2026-05-05 18:44 43.44444 8.57399 29925 ft 475 kts 348°
2026-05-05 18:45 43.51063 8.56875 29947 ft 476 kts 348°
2026-05-05 18:45 43.57691 8.56352 29926 ft 478 kts 348°
2026-05-05 18:46 43.64319 8.55827 29922 ft 478 kts 348°
2026-05-05 18:46 43.70920 8.55303 29942 ft 477 kts 348°
2026-05-05 18:47 43.77564 8.54776 29926 ft 476 kts 348°
2026-05-05 18:47 43.84198 8.54246 29923 ft 477 kts 348°
2026-05-05 18:48 43.90800 8.53718 29948 ft 478 kts 348°
2026-05-05 18:48 43.97471 8.53184 29926 ft 479 kts 348°
2026-05-05 18:49 44.04135 8.52653 29922 ft 479 kts 348°
2026-05-05 18:49 44.10736 8.52128 29962 ft 477 kts 348°
2026-05-05 18:50 44.17425 8.51584 29324 ft 488 kts 349°
2026-05-05 18:50 44.20800 8.51304 28716 ft 481 kts 349°
2026-05-05 18:50 44.24082 8.51043 28121 ft 474 kts 349°
2026-05-05 18:51 44.27344 8.50784 27503 ft 467 kts 350°
2026-05-05 18:51 44.30574 8.50526 26927 ft 461 kts 350°
2026-05-05 18:51 44.33761 8.50268 26346 ft 455 kts 350°
2026-05-05 18:51 44.36868 8.49828 25764 ft 441 kts 339°
2026-05-05 18:52 44.39621 8.48353 25258 ft 417 kts 321°
2026-05-05 18:52 44.41853 8.45923 24597 ft 402 kts 308°
2026-05-05 18:52 44.43786 8.43127 23889 ft 399 kts 305°
2026-05-05 18:52 44.45626 8.40223 23109 ft 398 kts 304°
2026-05-05 18:53 44.47423 8.37278 22375 ft 397 kts 303°
2026-05-05 18:53 44.49199 8.34326 21716 ft 394 kts 303°
2026-05-05 18:53 44.50739 8.31185 20759 ft 389 kts 291°
2026-05-05 18:53 44.51913 8.27768 19820 ft 391 kts 289°
2026-05-05 18:54 44.53061 8.24283 18858 ft 396 kts 290°
2026-05-05 18:54 44.54272 8.20785 17844 ft 402 kts 292°
2026-05-05 18:54 44.55538 8.17325 16812 ft 404 kts 293°
2026-05-05 18:54 44.56866 8.13845 15844 ft 405 kts 294°
2026-05-05 18:55 44.58215 8.10399 14900 ft 398 kts 295°
2026-05-05 18:55 44.59541 8.07068 13955 ft 383 kts 295°
2026-05-05 18:55 44.60820 8.03861 12995 ft 370 kts 296°
2026-05-05 18:55 44.62042 8.00799 12058 ft 357 kts 296°
2026-05-05 18:56 44.63229 7.97809 11345 ft 342 kts 296°
2026-05-05 18:56 44.64361 7.94950 10787 ft 325 kts 296°
2026-05-05 18:56 44.65428 7.92244 10430 ft 305 kts 296°
2026-05-05 18:56 44.66455 7.89767 10247 ft 284 kts 304°
2026-05-05 18:57 44.67910 7.88016 10038 ft 273 kts 329°
2026-05-05 18:57 44.69588 7.86875 9723 ft 271 kts 332°
2026-05-05 18:57 44.71291 7.85693 9396 ft 274 kts 329°
2026-05-05 18:57 44.72980 7.84417 9076 ft 276 kts 329°
2026-05-05 18:58 44.74659 7.83079 8738 ft 277 kts 328°
2026-05-05 18:58 44.76323 7.81713 8418 ft 276 kts 327°
2026-05-05 18:58 44.77985 7.80315 8107 ft 280 kts 327°
2026-05-05 18:58 44.79630 7.78906 7790 ft 278 kts 327°
2026-05-05 18:59 44.81272 7.77490 7471 ft 274 kts 327°
2026-05-05 18:59 44.82890 7.76093 7121 ft 270 kts 327°
2026-05-05 18:59 44.84482 7.74722 6767 ft 264 kts 327°
2026-05-05 18:59 44.86023 7.73398 6420 ft 253 kts 327°
2026-05-05 19:00 44.87485 7.72145 6066 ft 245 kts 328°
2026-05-05 19:00 44.88926 7.70911 5707 ft 238 kts 328°
2026-05-05 19:00 44.90335 7.69702 5333 ft 235 kts 328°
2026-05-05 19:00 44.91741 7.68498 4958 ft 237 kts 328°
2026-05-05 19:01 44.92674 7.67697 4749 ft 237 kts 328°
2026-05-05 19:01 44.94548 7.66095 4306 ft 237 kts 328°
2026-05-05 19:01 44.95891 7.64944 4137 ft 223 kts 328°
2026-05-05 19:01 44.96742 7.64213 4001 ft 209 kts 329°
2026-05-05 19:02 44.98051 7.63604 3923 ft 198 kts
2026-05-05 19:02 44.99868 7.63774 3956 ft 198 kts
2026-05-05 19:02 45.00781 7.63779 3947 ft 188 kts
2026-05-05 19:02 45.02047 7.63826 3961 ft 181 kts
2026-05-05 19:03 45.03310 7.63911 3984 ft 181 kts
2026-05-05 19:03 45.04595 7.63993 3811 ft 187 kts
2026-05-05 19:03 45.05871 7.64070 3558 ft 183 kts
2026-05-05 19:03 45.07118 7.64150 3279 ft 175 kts
2026-05-05 19:04 45.08312 7.64224 3008 ft 169 kts
2026-05-05 19:04 45.09435 7.64298 2919 ft 150 kts
2026-05-05 19:04 45.10411 7.64359 2845 ft 139 kts
2026-05-05 19:04 45.11389 7.64428 2652 ft 140 kts
2026-05-05 19:05 45.12358 7.64491 2413 ft 141 kts
2026-05-05 19:05 45.13353 7.64550 2174 ft 143 kts
2026-05-05 19:05 45.14351 7.64603 1937 ft 143 kts
2026-05-05 19:05 45.15322 7.64647 1730 ft 139 kts
2026-05-05 19:06 45.16296 7.64705 1530 ft 140 kts
2026-05-05 19:06 45.17269 7.64775 1352 ft 138 kts
2026-05-05 19:06 45.18233 7.64835 1155 ft 138 kts
2026-05-05 19:06 45.19170 7.64902 1002 ft 133 kts
2026-05-05 19:07 45.19995 7.64957 982 ft 91 kts
2026-05-05 19:07 45.20417 7.64985 988 ft 56 kts
2026-05-05 19:07 45.20717 7.65003 988 ft 32 kts
2026-05-05 19:07 45.20845 7.64969 991 ft 12 kts 318°
2026-05-05 19:08 45.20876 7.64892 987 ft 3 kts 285°
2026-05-05 19:08 45.20879 7.64865 985 ft 4 kts 276°
2026-05-05 19:08 45.20871 7.64809 993 ft 7 kts 242°
2026-05-05 19:08 45.20818 7.64751 988 ft 13 kts 197°
2026-05-05 19:09 45.20728 7.64737 986 ft 10 kts 182°
2026-05-05 19:09 45.20658 7.64733 993 ft 10 kts 182°
2026-05-05 19:09 45.20586 7.64728 992 ft 10 kts 182°
2026-05-05 19:09 45.20516 7.64723 991 ft 10 kts 182°
2026-05-05 19:10 45.20441 7.64720 986 ft 11 kts 182°
2026-05-05 19:10 45.20362 7.64715 994 ft 12 kts 183°
2026-05-05 19:10 45.20279 7.64709 988 ft 13 kts 182°
2026-05-05 19:10 45.20189 7.64703 986 ft 13 kts 182°
2026-05-05 19:11 45.20094 7.64697 988 ft 14 kts 182°
2026-05-05 19:11 45.19996 7.64691 992 ft 14 kts 182°
2026-05-05 19:11 45.19896 7.64685 989 ft 15 kts 182°
2026-05-05 19:11 45.19792 7.64684 990 ft 15 kts 172°
2026-05-05 19:12 45.19687 7.64695 986 ft 15 kts 182°
2026-05-05 19:12 45.19580 7.64688 986 ft 15 kts 182°
2026-05-05 19:12 45.19471 7.64682 992 ft 16 kts 182°
2026-05-05 19:12 45.19375 7.64675 991 ft 10 kts 185°
2026-05-05 19:13 45.19342 7.64636 993 ft 6 kts 248°
2026-05-05 19:13 45.19331 7.64573 993 ft 7 kts 257°
2026-05-05 19:13 45.19323 7.64526 989 ft 3 kts 257°
2026-05-05 19:13 45.19323 7.64521 990 ft 0 kts 257°